Time,TemperatureF,DewpointF,PressureIn,WindDirection,WindDirectionDegrees,WindSpeedMPH,WindSpeedGustMPH,Humidity,HourlyPrecipIn,Conditions,Clouds,dailyrainin,SolarRadiationWatts/m^2,SoftwareType,DateUTC
2013-01-19 00:02:00,69.3,49.8,-100.00,SSW,207,6.0,10.0,50,0.00,,,0.00,0.0,meteohub,2013-01-19 05:02:00,
2013-01-19 00:07:00,69.3,50.4,-100.00,SSW,196,6.0,10.0,51,0.00,,,0.00,0.0,meteohub,2013-01-19 05:07:00,
2013-01-19 00:12:00,69.4,51.1,-100.00,SSW,195,0.0,12.0,52,0.00,,,0.00,0.0,meteohub,2013-01-19 05:12:00,
2013-01-19 00:22:00,69.6,52.2,-100.00,SE,133,3.0,12.0,54,0.00,,,0.00,0.0,meteohub,2013-01-19 05:22:00,
2013-01-19 00:27:00,69.6,52.2,-100.00,SSW,196,4.0,12.0,54,0.00,,,0.00,0.0,meteohub,2013-01-19 05:27:00,
2013-01-19 00:32:00,69.6,52.2,-100.00,South,173,2.0,12.0,54,0.00,,,0.00,0.0,meteohub,2013-01-19 05:32:00,
2013-01-19 00:37:00,69.4,52.2,-100.00,SSE,167,1.0,12.0,54,0.00,,,0.00,0.0,meteohub,2013-01-19 05:37:00,
2013-01-19 00:42:00,69.3,51.4,-100.00,SSE,164,1.0,9.0,53,0.00,,,0.00,0.0,meteohub,2013-01-19 05:42:00,
2013-01-19 00:47:00,69.3,51.4,-100.00,SSW,198,1.0,9.0,53,0.00,,,0.00,0.0,meteohub,2013-01-19 05:47:00,
2013-01-19 00:52:00,69.4,51.6,-100.00,SE,128,2.0,9.0,53,0.00,,,0.00,0.0,meteohub,2013-01-19 05:52:00,
2013-01-19 00:57:00,69.6,51.3,-100.00,South,184,2.0,9.0,52,0.00,,,0.00,0.0,meteohub,2013-01-19 05:57:00,
2013-01-19 01:07:00,69.4,51.1,-100.00,SSW,211,4.0,12.0,52,0.00,,,0.00,0.0,meteohub,2013-01-19 06:07:00,
2013-01-19 01:17:00,69.4,51.1,-100.00,SSW,196,2.0,12.0,52,0.00,,,0.00,0.0,meteohub,2013-01-19 06:17:00,
2013-01-19 01:22:00,69.4,51.1,-100.00,South,188,0.0,12.0,52,0.00,,,0.00,0.0,meteohub,2013-01-19 06:22:00,
2013-01-19 01:32:00,69.3,50.4,-100.00,SSE,152,0.0,12.0,51,0.00,,,0.00,0.0,meteohub,2013-01-19 06:32:00,
2013-01-19 01:42:00,69.3,50.4,-100.00,SSE,161,3.0,10.0,51,0.00,,,0.00,0.0,meteohub,2013-01-19 06:42:00,
2013-01-19 01:47:00,69.4,50.5,-100.00,SW,219,4.0,10.0,51,0.00,,,0.00,0.0,meteohub,2013-01-19 06:47:00,
2013-01-19 01:52:00,69.4,50.5,-100.00,SSW,194,0.0,10.0,51,0.00,,,0.00,0.0,meteohub,2013-01-19 06:52:00,
2013-01-19 01:57:00,69.4,50.5,-100.00,SSW,195,4.0,7.0,51,0.00,,,0.00,0.0,meteohub,2013-01-19 06:57:00,
2013-01-19 02:02:00,69.4,50.5,-100.00,SSW,207,4.0,7.0,51,0.00,,,0.00,0.0,meteohub,2013-01-19 07:02:00,
2013-01-19 02:07:00,69.4,50.5,-100.00,South,189,1.0,7.0,51,0.00,,,0.00,0.0,meteohub,2013-01-19 07:07:00,
2013-01-19 02:12:00,69.4,50.5,-100.00,East,98,1.0,7.0,51,0.00,,,0.00,0.0,meteohub,2013-01-19 07:12:00,
2013-01-19 02:17:00,69.4,50.5,-100.00,SSW,206,2.0,6.0,51,0.00,,,0.00,0.0,meteohub,2013-01-19 07:17:00,
2013-01-19 02:22:00,69.4,50.5,-100.00,South,184,1.0,6.0,51,0.00,,,0.00,0.0,meteohub,2013-01-19 07:22:00,
2013-01-19 02:27:00,69.4,50.5,-100.00,SSE,152,0.0,6.0,51,0.00,,,0.00,0.0,meteohub,2013-01-19 07:27:00,
2013-01-19 02:32:00,69.4,50.0,-100.00,SSE,157,1.0,6.0,50,0.00,,,0.00,0.0,meteohub,2013-01-19 07:32:00,
2013-01-19 02:37:00,69.4,50.0,-100.00,SSE,153,2.0,6.0,50,0.00,,,0.00,0.0,meteohub,2013-01-19 07:37:00,
2013-01-19 02:42:00,69.6,50.2,-100.00,South,182,0.0,5.0,50,0.00,,,0.00,0.0,meteohub,2013-01-19 07:42:00,
2013-01-19 02:52:00,69.8,50.9,-100.00,South,184,2.0,5.0,51,0.00,,,0.00,0.0,meteohub,2013-01-19 07:52:00,
2013-01-19 02:57:00,69.8,50.9,-100.00,SE,138,2.0,5.0,51,0.00,,,0.00,0.0,meteohub,2013-01-19 07:57:00,
2013-01-19 03:02:00,70.0,51.1,-100.00,SSE,167,1.0,6.0,51,0.00,,,0.00,0.0,meteohub,2013-01-19 08:02:00,
2013-01-19 03:07:00,70.0,51.1,-100.00,South,182,0.0,6.0,51,0.00,,,0.00,0.0,meteohub,2013-01-19 08:07:00,
2013-01-19 03:17:00,69.6,50.7,-100.00,South,182,3.0,6.0,51,0.00,,,0.00,0.0,meteohub,2013-01-19 08:17:00,
2013-01-19 03:22:00,69.6,50.7,-100.00,SE,132,2.0,6.0,51,0.00,,,0.00,0.0,meteohub,2013-01-19 08:22:00,
2013-01-19 03:27:00,69.6,50.2,-100.00,South,175,0.0,6.0,50,0.00,,,0.00,0.0,meteohub,2013-01-19 08:27:00,
2013-01-19 03:32:00,69.8,50.9,-100.00,SSW,200,5.0,5.0,51,0.00,,,0.00,0.0,meteohub,2013-01-19 08:32:00,
2013-01-19 03:42:00,70.0,51.1,-100.00,South,184,0.0,5.0,51,0.00,,,0.00,0.0,meteohub,2013-01-19 08:42:00,
2013-01-19 03:47:00,70.0,51.1,-100.00,South,190,1.0,5.0,51,0.00,,,0.00,0.0,meteohub,2013-01-19 08:47:00,
2013-01-19 03:52:00,70.0,51.1,-100.00,South,178,0.0,6.0,51,0.00,,,0.00,0.0,meteohub,2013-01-19 08:52:00,
2013-01-19 03:57:00,70.0,50.5,-100.00,South,178,2.0,6.0,50,0.00,,,0.00,0.0,meteohub,2013-01-19 08:57:00,
2013-01-19 04:02:00,70.0,50.0,-100.00,South,174,0.0,6.0,49,0.00,,,0.00,0.0,meteohub,2013-01-19 09:02:00,
2013-01-19 04:07:00,70.0,50.0,-100.00,South,185,3.0,6.0,49,0.00,,,0.00,0.0,meteohub,2013-01-19 09:07:00,
2013-01-19 04:12:00,70.0,49.5,-100.00,South,175,2.0,5.0,48,0.00,,,0.00,0.0,meteohub,2013-01-19 09:12:00,
2013-01-19 04:17:00,70.0,50.0,-100.00,South,171,2.0,5.0,49,0.00,,,0.00,0.0,meteohub,2013-01-19 09:17:00,
2013-01-19 04:22:00,70.0,49.5,-100.00,South,180,3.0,5.0,48,0.00,,,0.00,0.0,meteohub,2013-01-19 09:22:00,
2013-01-19 04:27:00,69.8,49.3,-100.00,SSE,168,2.0,5.0,48,0.00,,,0.00,0.0,meteohub,2013-01-19 09:27:00,
2013-01-19 04:32:00,69.8,49.3,-100.00,South,177,6.0,6.0,48,0.00,,,0.00,0.0,meteohub,2013-01-19 09:32:00,
2013-01-19 04:37:00,69.8,49.3,-100.00,South,176,0.0,6.0,48,0.00,,,0.00,0.0,meteohub,2013-01-19 09:37:00,
2013-01-19 04:42:00,69.8,49.3,-100.00,South,174,2.0,6.0,48,0.00,,,0.00,0.0,meteohub,2013-01-19 09:42:00,
2013-01-19 04:47:00,70.0,49.5,-100.00,South,191,3.0,6.0,48,0.00,,,0.00,0.0,meteohub,2013-01-19 09:47:00,
2013-01-19 04:52:00,70.2,48.9,-100.00,SE,140,3.0,6.0,47,0.00,,,0.00,0.0,meteohub,2013-01-19 09:52:00,
2013-01-19 05:02:00,70.2,48.9,-100.00,SSW,196,4.0,7.0,47,0.00,,,0.00,0.0,meteohub,2013-01-19 10:02:00,
2013-01-19 05:07:00,70.2,48.4,-100.00,SSW,194,4.0,7.0,46,0.00,,,0.00,0.0,meteohub,2013-01-19 10:07:00,
2013-01-19 05:17:00,70.2,48.4,-100.00,SSW,202,1.0,7.0,46,0.00,,,0.00,0.0,meteohub,2013-01-19 10:17:00,
2013-01-19 05:22:00,70.2,47.8,-100.00,SSW,206,2.0,7.0,45,0.00,,,0.00,0.0,meteohub,2013-01-19 10:22:00,
2013-01-19 05:27:00,70.0,48.2,-100.00,South,178,2.0,7.0,46,0.00,,,0.00,0.0,meteohub,2013-01-19 10:27:00,
2013-01-19 05:32:00,70.0,48.2,-100.00,South,185,0.0,7.0,46,0.00,,,0.00,0.0,meteohub,2013-01-19 10:32:00,
2013-01-19 05:37:00,70.0,47.7,-100.00,SSW,196,1.0,7.0,45,0.00,,,0.00,0.0,meteohub,2013-01-19 10:37:00,
2013-01-19 05:47:00,70.2,48.9,-100.00,SSW,201,0.0,6.0,47,0.00,,,0.00,0.0,meteohub,2013-01-19 10:47:00,
2013-01-19 05:52:00,70.2,48.4,-100.00,South,188,0.0,6.0,46,0.00,,,0.00,0.0,meteohub,2013-01-19 10:52:00,
2013-01-19 05:57:00,70.0,48.2,-100.00,SSE,153,2.0,6.0,46,0.00,,,0.00,0.0,meteohub,2013-01-19 10:57:00,
2013-01-19 06:02:00,70.0,48.2,-100.00,South,188,0.0,6.0,46,0.00,,,0.00,0.0,meteohub,2013-01-19 11:02:00,
2013-01-19 06:07:00,70.2,48.4,-100.00,South,190,2.0,6.0,46,0.00,,,0.00,0.0,meteohub,2013-01-19 11:07:00,
2013-01-19 07:47:00,70.5,46.9,-100.00,SSW,207,4.0,5.0,43,0.00,,,0.00,40.0,meteohub,2013-01-19 12:47:00,
2013-01-19 07:48:00,70.5,46.4,-100.00,SSE,149,1.0,5.0,42,0.00,,,0.00,46.0,meteohub,2013-01-19 12:48:00,
2013-01-19 07:57:00,70.7,47.1,-100.00,SSE,165,2.0,5.0,43,0.00,,,0.00,56.0,meteohub,2013-01-19 12:57:00,
2013-01-19 08:02:00,70.7,47.1,-100.00,SSE,167,0.0,6.0,43,0.00,,,0.00,63.0,meteohub,2013-01-19 13:02:00,
2013-01-19 08:07:00,70.9,46.6,-100.00,SSE,154,0.0,6.0,42,0.00,,,0.00,77.0,meteohub,2013-01-19 13:07:00,
2013-01-19 08:12:00,71.1,46.8,-100.00,WSW,246,0.0,6.0,42,0.00,,,0.00,83.0,meteohub,2013-01-19 13:12:00,
2013-01-19 08:17:00,71.2,46.4,-100.00,South,171,2.0,6.0,41,0.00,,,0.00,100.0,meteohub,2013-01-19 13:17:00,
2013-01-19 08:22:00,71.2,46.4,-100.00,WNW,290,0.0,5.0,41,0.00,,,0.00,90.0,meteohub,2013-01-19 13:22:00,
2013-01-19 08:27:00,71.2,46.9,-100.00,WNW,291,0.0,5.0,42,0.00,,,0.00,58.0,meteohub,2013-01-19 13:27:00,
2013-01-19 08:32:00,71.2,47.7,-100.00,NNW,348,0.0,5.0,43,0.00,,,0.00,69.0,meteohub,2013-01-19 13:32:00,
2013-01-19 08:42:00,71.6,47.8,-100.00,SSE,167,0.0,5.0,43,0.00,,,0.00,90.0,meteohub,2013-01-19 13:42:00,
2013-01-19 08:47:00,71.8,47.5,-100.00,SSE,167,2.0,5.0,42,0.00,,,0.00,74.0,meteohub,2013-01-19 13:47:00,
2013-01-19 08:52:00,71.8,46.8,-100.00,ESE,121,4.0,5.0,41,0.00,,,0.00,67.0,meteohub,2013-01-19 13:52:00,
2013-01-19 08:57:00,72.0,46.9,-100.00,SSE,163,0.0,5.0,41,0.00,,,0.00,70.0,meteohub,2013-01-19 13:57:00,
2013-01-19 09:02:00,72.0,46.9,-100.00,SE,139,4.0,6.0,41,0.00,,,0.00,76.0,meteohub,2013-01-19 14:02:00,
2013-01-19 09:07:00,72.0,46.9,-100.00,South,175,1.0,6.0,41,0.00,,,0.00,65.0,meteohub,2013-01-19 14:07:00,
2013-01-19 09:17:00,72.1,46.4,-100.00,SSE,162,5.0,6.0,40,0.00,,,0.00,60.0,meteohub,2013-01-19 14:17:00,
2013-01-19 09:22:00,72.1,45.9,-100.00,SE,137,2.0,11.0,39,0.00,,,0.00,49.0,meteohub,2013-01-19 14:22:00,
2013-01-19 09:32:00,72.1,45.9,-100.00,SSE,163,1.0,8.0,39,0.00,,,0.00,49.0,meteohub,2013-01-19 14:32:00,
2013-01-19 09:42:00,72.1,45.1,-100.00,ESE,118,2.0,8.0,38,0.00,,,0.00,67.0,meteohub,2013-01-19 14:42:00,
2013-01-19 09:47:00,72.1,45.1,-100.00,SSW,207,4.0,8.0,38,0.00,,,0.00,84.0,meteohub,2013-01-19 14:47:00,
2013-01-19 09:52:00,72.1,45.9,-100.00,West,259,5.0,7.0,39,0.00,,,0.00,102.0,meteohub,2013-01-19 14:52:00,
2013-01-19 09:57:00,72.0,46.4,-100.00,SSE,147,4.0,7.0,40,0.00,,,0.00,97.0,meteohub,2013-01-19 14:57:00,
2013-01-19 10:07:00,71.8,47.5,-100.00,South,186,3.0,10.0,42,0.00,,,0.00,70.0,meteohub,2013-01-19 15:07:00,
2013-01-19 10:12:00,71.8,44.8,-100.00,South,182,2.0,10.0,38,0.00,,,0.00,98.0,meteohub,2013-01-19 15:12:00,
2013-01-19 10:17:00,72.0,41.4,-100.00,SSW,192,0.0,10.0,33,0.00,,,0.00,90.0,meteohub,2013-01-19 15:17:00,
2013-01-19 10:22:00,72.7,35.8,-100.00,SSE,153,8.0,10.0,26,0.00,,,0.00,60.0,meteohub,2013-01-19 15:22:00,
2013-01-19 10:32:00,72.0,31.1,-100.00,South,191,0.0,10.0,22,0.02,,,0.02,81.0,meteohub,2013-01-19 15:32:00,
2013-01-19 10:37:00,72.0,28.8,-100.00,SSE,168,3.0,10.0,20,0.02,,,0.02,88.0,meteohub,2013-01-19 15:37:00,
2013-01-19 10:42:00,71.8,27.3,-100.00,SSE,161,5.0,10.0,19,0.02,,,0.03,128.0,meteohub,2013-01-19 15:42:00,
2013-01-19 10:47:00,71.4,27.0,-100.00,South,177,3.0,10.0,19,0.02,,,0.03,179.0,meteohub,2013-01-19 15:47:00,
2013-01-19 10:52:00,71.2,26.8,-100.00,SSW,193,3.0,7.0,19,0.04,,,0.03,127.0,meteohub,2013-01-19 15:52:00,
2013-01-19 10:57:00,71.1,26.8,-100.00,South,183,3.0,7.0,19,0.04,,,0.04,84.0,meteohub,2013-01-19 15:57:00,
2013-01-19 11:02:00,70.3,26.1,-100.00,South,183,0.0,9.0,19,0.05,,,0.04,95.0,meteohub,2013-01-19 16:02:00,
2013-01-19 11:07:00,70.3,26.1,-100.00,South,180,1.0,9.0,19,0.05,,,0.04,118.0,meteohub,2013-01-19 16:07:00,
2013-01-19 11:12:00,70.2,26.1,-100.00,SSW,204,0.0,9.0,19,0.05,,,0.06,120.0,meteohub,2013-01-19 16:12:00,
2013-01-19 11:17:00,70.0,27.1,-100.00,SSW,200,0.0,9.0,20,0.06,,,0.06,123.0,meteohub,2013-01-19 16:17:00,
2013-01-19 11:27:00,69.4,26.6,-100.00,ENE,65,0.0,4.0,20,0.06,,,0.09,109.0,meteohub,2013-01-19 16:27:00,
2013-01-19 11:37:00,69.3,26.4,-100.00,SSW,212,0.0,5.0,20,0.11,,,0.09,125.0,meteohub,2013-01-19 16:37:00,
2013-01-19 11:42:00,69.3,26.4,-100.00,WSW,241,1.0,5.0,20,0.11,,,0.27,111.0,meteohub,2013-01-19 16:42:00,
2013-01-19 11:47:00,69.3,26.4,-100.00,WSW,241,1.0,5.0,20,0.11,,,0.27,171.0,meteohub,2013-01-19 16:47:00,
2013-01-19 11:57:00,69.4,26.6,-100.00,WSW,241,0.0,4.0,20,0.24,,,0.28,132.0,meteohub,2013-01-19 16:57:00,
2013-01-19 12:02:00,69.6,26.8,-100.00,WSW,241,1.0,3.0,20,0.23,,,0.28,130.0,meteohub,2013-01-19 17:02:00,
2013-01-19 12:07:00,69.8,27.0,-100.00,WSW,241,4.0,4.0,20,0.23,,,0.28,134.0,meteohub,2013-01-19 17:07:00,
2013-01-19 12:15:00,70.0,27.1,-100.00,WSW,240,1.0,3.0,20,0.23,,,0.28,86.0,meteohub,2013-01-19 17:15:00,
2013-01-19 12:22:00,69.6,26.8,-100.00,WSW,241,3.0,5.0,20,0.22,,,0.28,167.0,meteohub,2013-01-19 17:22:00,
2013-01-19 12:27:00,69.8,27.0,-100.00,WSW,253,0.0,5.0,20,0.22,,,0.28,158.0,meteohub,2013-01-19 17:27:00,
2013-01-19 12:32:00,69.6,26.8,-100.00,SW,220,0.0,5.0,20,0.22,,,0.28,149.0,meteohub,2013-01-19 17:32:00,
2013-01-19 12:42:00,70.0,27.1,-100.00,SSW,211,0.0,5.0,20,0.02,,,0.28,142.0,meteohub,2013-01-19 17:42:00,
2013-01-19 12:47:00,70.0,27.1,-100.00,SSW,209,0.0,6.0,20,0.02,,,0.28,174.0,meteohub,2013-01-19 17:47:00,
2013-01-19 12:52:00,70.0,27.1,-100.00,SSW,194,2.0,6.0,20,0.02,,,0.28,127.0,meteohub,2013-01-19 17:52:00,
2013-01-19 12:57:00,69.6,26.8,-100.00,South,188,3.0,6.0,20,0.02,,,0.28,134.0,meteohub,2013-01-19 17:57:00,
2013-01-19 13:02:00,69.8,27.0,-100.00,South,179,3.0,6.0,20,0.01,,,0.29,128.0,meteohub,2013-01-19 18:02:00,
2013-01-19 13:07:00,69.8,27.0,-100.00,South,178,3.0,6.0,20,0.01,,,0.29,125.0,meteohub,2013-01-19 18:07:00,
2013-01-19 13:15:00,69.1,26.2,-100.00,South,173,7.0,7.0,20,0.01,,,0.29,132.0,meteohub,2013-01-19 18:15:00,
2013-01-19 13:22:00,69.6,26.8,-100.00,SSE,165,2.0,12.0,20,0.04,,,0.32,160.0,meteohub,2013-01-19 18:22:00,
2013-01-19 13:27:00,70.2,27.1,-100.00,SSE,164,0.0,12.0,20,0.04,,,0.32,176.0,meteohub,2013-01-19 18:27:00,
2013-01-19 13:32:00,70.3,27.3,-100.00,SSE,164,1.0,7.0,20,0.06,,,0.34,214.0,meteohub,2013-01-19 18:32:00,
2013-01-19 13:37:00,70.3,27.3,-100.00,South,169,3.0,7.0,20,0.06,,,0.34,246.0,meteohub,2013-01-19 18:37:00,
2013-01-19 13:42:00,70.3,27.3,-100.00,South,179,3.0,7.0,20,0.06,,,0.34,250.0,meteohub,2013-01-19 18:42:00,
2013-01-19 13:47:00,70.5,27.5,-100.00,SSW,194,3.0,7.0,20,0.06,,,0.34,220.0,meteohub,2013-01-19 18:47:00,
2013-01-19 13:52:00,70.5,27.5,-100.00,SSW,192,1.0,6.0,20,0.06,,,0.34,241.0,meteohub,2013-01-19 18:52:00,
2013-01-19 14:02:00,70.9,27.9,-100.00,SSE,167,1.0,7.0,20,0.05,,,0.34,216.0,meteohub,2013-01-19 19:02:00,
2013-01-19 14:12:00,71.2,28.0,-100.00,South,191,2.0,7.0,20,0.05,,,0.34,167.0,meteohub,2013-01-19 19:12:00,
2013-01-19 14:17:00,71.4,28.2,-100.00,South,191,0.0,7.0,20,0.02,,,0.34,178.0,meteohub,2013-01-19 19:17:00,
2013-01-19 14:27:00,72.1,27.7,-100.00,South,191,1.0,6.0,19,0.02,,,0.34,283.0,meteohub,2013-01-19 19:27:00,
2013-01-19 14:32:00,72.3,27.7,-100.00,South,191,0.0,4.0,19,0.00,,,0.34,269.0,meteohub,2013-01-19 19:32:00,
2013-01-19 14:37:00,72.3,27.7,-100.00,South,191,0.0,4.0,19,0.00,,,0.34,213.0,meteohub,2013-01-19 19:37:00,
2013-01-19 14:42:00,72.7,28.0,-100.00,South,191,1.0,4.0,19,0.00,,,0.34,169.0,meteohub,2013-01-19 19:42:00,
2013-01-19 14:52:00,72.5,27.9,-100.00,South,175,1.0,2.0,19,0.00,,,0.34,104.0,meteohub,2013-01-19 19:52:00,
2013-01-19 15:02:00,72.0,27.5,-100.00,South,171,1.0,5.0,19,0.00,,,0.34,199.0,meteohub,2013-01-19 20:02:00,
2013-01-19 15:12:00,71.8,27.3,-100.00,South,171,0.0,5.0,19,0.00,,,0.34,137.0,meteohub,2013-01-19 20:12:00,
2013-01-19 15:17:00,71.8,27.3,-100.00,South,171,3.0,5.0,19,0.00,,,0.34,111.0,meteohub,2013-01-19 20:17:00,
2013-01-19 15:22:00,71.4,27.0,-100.00,South,169,1.0,5.0,19,0.00,,,0.34,113.0,meteohub,2013-01-19 20:22:00,
2013-01-19 15:27:00,71.2,28.0,-100.00,South,171,1.0,5.0,20,0.00,,,0.36,199.0,meteohub,2013-01-19 20:27:00,
2013-01-19 15:37:00,71.2,28.0,-100.00,South,169,0.0,5.0,20,0.02,,,0.36,218.0,meteohub,2013-01-19 20:37:00,
2013-01-19 15:42:00,71.6,28.4,-100.00,South,169,0.0,5.0,20,0.02,,,0.36,255.0,meteohub,2013-01-19 20:42:00,
2013-01-19 15:52:00,71.8,28.6,-100.00,South,171,0.0,5.0,20,0.02,,,0.36,188.0,meteohub,2013-01-19 20:52:00,
2013-01-19 15:57:00,71.8,28.6,-100.00,South,172,1.0,5.0,20,0.02,,,0.36,139.0,meteohub,2013-01-19 20:57:00,
2013-01-19 16:02:00,71.8,28.6,-100.00,South,172,0.0,5.0,20,0.02,,,0.36,139.0,meteohub,2013-01-19 21:02:00,
2013-01-19 16:07:00,72.0,28.8,-100.00,South,172,0.0,5.0,20,0.02,,,0.36,141.0,meteohub,2013-01-19 21:07:00,
2013-01-19 16:12:00,72.1,28.8,-100.00,South,172,0.0,5.0,20,0.02,,,0.36,137.0,meteohub,2013-01-19 21:12:00,
2013-01-19 16:17:00,72.0,27.5,-100.00,South,173,2.0,5.0,19,0.02,,,0.36,116.0,meteohub,2013-01-19 21:17:00,
2013-01-19 16:22:00,72.0,27.5,-100.00,South,173,0.0,4.0,19,0.02,,,0.36,104.0,meteohub,2013-01-19 21:22:00,
2013-01-19 16:27:00,71.8,27.3,-100.00,South,175,1.0,4.0,19,0.02,,,0.36,98.0,meteohub,2013-01-19 21:27:00,
2013-01-19 16:37:00,72.0,27.5,-100.00,South,175,0.0,4.0,19,0.00,,,0.36,70.0,meteohub,2013-01-19 21:37:00,
2013-01-19 16:43:00,72.1,27.7,-100.00,South,175,2.0,4.0,19,0.00,,,0.36,58.0,meteohub,2013-01-19 21:43:00,
2013-01-19 16:52:00,72.1,27.7,-100.00,South,175,0.0,3.0,19,0.00,,,0.36,35.0,meteohub,2013-01-19 21:52:00,
2013-01-19 16:57:00,72.1,27.7,-100.00,South,175,0.0,3.0,19,0.00,,,0.36,32.0,meteohub,2013-01-19 21:57:00,
2013-01-19 17:02:00,72.1,27.7,-100.00,South,175,3.0,3.0,19,0.00,,,0.36,33.0,meteohub,2013-01-19 22:02:00,
2013-01-19 17:07:00,72.0,27.5,-100.00,South,178,4.0,4.0,19,0.00,,,0.36,30.0,meteohub,2013-01-19 22:07:00,
2013-01-19 17:12:00,71.8,27.3,-100.00,South,187,3.0,3.0,19,0.00,,,0.36,25.0,meteohub,2013-01-19 22:12:00,
2013-01-19 17:22:00,71.2,28.0,-100.00,NW,310,2.0,6.0,20,0.00,,,0.36,9.0,meteohub,2013-01-19 22:22:00,
2013-01-19 17:35:00,70.7,27.7,-100.00,NW,312,3.0,5.0,20,0.00,,,0.36,7.0,meteohub,2013-01-19 22:35:00,
2013-01-19 17:42:00,70.3,27.3,-100.00,NW,312,0.0,5.0,20,0.00,,,0.36,0.0,meteohub,2013-01-19 22:42:00,
2013-01-19 17:47:00,70.3,27.3,-100.00,NW,312,2.0,5.0,20,0.00,,,0.36,0.0,meteohub,2013-01-19 22:47:00,
2013-01-19 17:58:00,70.2,27.1,-100.00,NW,312,2.0,5.0,20,0.01,,,0.37,0.0,meteohub,2013-01-19 22:58:00,
2013-01-19 18:07:00,70.0,27.1,-100.00,NW,311,1.0,4.0,20,0.02,,,0.37,0.0,meteohub,2013-01-19 23:07:00,
2013-01-19 18:17:00,70.0,27.1,-100.00,NW,313,2.0,4.0,20,0.02,,,0.38,0.0,meteohub,2013-01-19 23:17:00,
2013-01-19 18:22:00,70.0,28.2,-100.00,NW,313,1.0,4.0,21,0.02,,,0.38,0.0,meteohub,2013-01-19 23:22:00,
2013-01-19 18:28:00,69.8,28.0,-100.00,NW,313,0.0,4.0,21,0.02,,,0.38,0.0,meteohub,2013-01-19 23:28:00,
2013-01-19 18:37:00,70.0,28.2,-100.00,NW,313,3.0,4.0,21,0.02,,,0.38,0.0,meteohub,2013-01-19 23:37:00,
2013-01-19 18:42:00,69.6,27.9,-100.00,NW,315,5.0,5.0,21,0.02,,,0.38,0.0,meteohub,2013-01-19 23:42:00,
2013-01-19 18:52:00,69.3,27.7,-100.00,NNW,327,0.0,5.0,21,0.02,,,0.38,0.0,meteohub,2013-01-19 23:52:00,
2013-01-19 19:05:00,69.1,27.5,-100.00,NW,326,2.0,6.0,21,0.00,,,0.38,0.0,meteohub,2013-01-20 00:05:00,
2013-01-19 19:15:00,68.5,27.1,-100.00,NNW,327,3.0,6.0,21,0.00,,,0.00,0.0,meteohub,2013-01-20 00:15:00,
2013-01-19 19:22:00,68.5,27.1,-100.00,NNW,327,0.0,4.0,21,0.00,,,0.00,0.0,meteohub,2013-01-20 00:22:00,
2013-01-19 19:32:00,68.4,27.0,-100.00,NNW,327,2.0,3.0,21,0.00,,,0.00,0.0,meteohub,2013-01-20 00:32:00,
2013-01-19 19:37:00,68.2,26.8,-100.00,NW,326,3.0,3.0,21,0.00,,,0.00,0.0,meteohub,2013-01-20 00:37:00,
2013-01-19 19:42:00,68.2,26.8,-100.00,NW,326,3.0,3.0,21,0.00,,,0.00,0.0,meteohub,2013-01-20 00:42:00,
2013-01-19 19:52:00,68.0,27.7,-100.00,NNW,327,1.0,4.0,22,0.00,,,0.00,0.0,meteohub,2013-01-20 00:52:00,
2013-01-19 19:57:00,67.8,27.5,-100.00,NNW,327,2.0,4.0,22,0.00,,,0.00,0.0,meteohub,2013-01-20 00:57:00,
2013-01-19 20:07:00,67.8,27.5,-100.00,NNW,327,2.0,4.0,22,0.00,,,0.00,0.0,meteohub,2013-01-20 01:07:00,
2013-01-19 20:12:00,67.6,27.5,-100.00,NNW,327,1.0,4.0,22,0.00,,,0.00,0.0,meteohub,2013-01-20 01:12:00,
2013-01-19 20:22:00,67.6,27.5,-100.00,NW,326,3.0,4.0,22,0.00,,,0.00,0.0,meteohub,2013-01-20 01:22:00,
2013-01-19 20:27:00,67.6,27.5,-100.00,NNW,327,2.0,4.0,22,0.00,,,0.00,0.0,meteohub,2013-01-20 01:27:00,
2013-01-19 20:37:00,67.5,27.3,-100.00,NNW,327,1.0,5.0,22,0.00,,,0.00,0.0,meteohub,2013-01-20 01:37:00,
2013-01-19 20:42:00,67.5,27.3,-100.00,NW,326,1.0,5.0,22,0.00,,,0.00,0.0,meteohub,2013-01-20 01:42:00,
2013-01-19 20:52:00,67.5,27.3,-100.00,NNW,327,2.0,3.0,22,0.00,,,0.00,0.0,meteohub,2013-01-20 01:52:00,
2013-01-19 20:58:00,67.5,27.3,-100.00,NNW,327,1.0,3.0,22,0.00,,,0.00,0.0,meteohub,2013-01-20 01:58:00,
2013-01-19 21:07:00,67.6,27.5,-100.00,NNW,331,2.0,4.0,22,0.00,,,0.00,0.0,meteohub,2013-01-20 02:07:00,
2013-01-19 21:17:00,67.6,27.5,-100.00,NNW,330,2.0,4.0,22,0.00,,,0.00,0.0,meteohub,2013-01-20 02:17:00,
2013-01-19 21:22:00,67.6,27.5,-100.00,NNW,331,2.0,5.0,22,0.00,,,0.00,0.0,meteohub,2013-01-20 02:22:00,
2013-01-19 21:27:00,67.6,27.5,-100.00,NNW,331,0.0,5.0,22,0.00,,,0.00,0.0,meteohub,2013-01-20 02:27:00,
2013-01-19 21:35:00,67.6,27.5,-100.00,NNW,331,4.0,4.0,22,0.00,,,0.00,0.0,meteohub,2013-01-20 02:35:00,
2013-01-19 21:42:00,67.6,27.5,-100.00,NNW,331,0.0,4.0,22,0.00,,,0.00,0.0,meteohub,2013-01-20 02:42:00,
2013-01-19 21:52:00,67.6,27.5,-100.00,NNW,330,2.0,5.0,22,0.00,,,0.00,0.0,meteohub,2013-01-20 02:52:00,
2013-01-19 21:57:00,67.6,27.5,-100.00,NNW,330,2.0,5.0,22,0.00,,,0.00,0.0,meteohub,2013-01-20 02:57:00,
2013-01-19 22:02:00,67.6,27.5,-100.00,NNW,331,0.0,5.0,22,0.00,,,0.00,0.0,meteohub,2013-01-20 03:02:00,
2013-01-19 22:12:00,67.5,27.3,-100.00,NNW,330,3.0,5.0,22,0.00,,,0.00,0.0,meteohub,2013-01-20 03:12:00,
2013-01-19 22:17:00,67.5,27.3,-100.00,NNW,331,1.0,5.0,22,0.00,,,0.00,0.0,meteohub,2013-01-20 03:17:00,
2013-01-19 22:27:00,67.5,27.3,-100.00,NNW,330,0.0,3.0,22,0.00,,,0.00,0.0,meteohub,2013-01-20 03:27:00,
2013-01-19 22:37:00,67.5,27.3,-100.00,NNW,331,2.0,3.0,22,0.00,,,0.00,0.0,meteohub,2013-01-20 03:37:00,
2013-01-19 22:42:00,67.5,27.3,-100.00,NNW,331,1.0,3.0,22,0.00,,,0.00,0.0,meteohub,2013-01-20 03:42:00,
2013-01-19 22:52:00,67.6,27.5,-100.00,NNW,330,2.0,4.0,22,0.00,,,0.00,0.0,meteohub,2013-01-20 03:52:00,
2013-01-19 22:57:00,67.5,27.3,-100.00,NNW,331,1.0,4.0,22,0.00,,,0.00,0.0,meteohub,2013-01-20 03:57:00,
2013-01-19 23:07:00,67.5,27.3,-100.00,NNW,330,0.0,4.0,22,0.00,,,0.00,0.0,meteohub,2013-01-20 04:07:00,
2013-01-19 23:12:00,67.5,27.3,-100.00,NNW,331,1.0,4.0,22,0.00,,,0.00,0.0,meteohub,2013-01-20 04:12:00,
2013-01-19 23:22:00,67.3,27.1,-100.00,NNW,331,1.0,3.0,22,0.00,,,0.00,0.0,meteohub,2013-01-20 04:22:00,
2013-01-19 23:27:00,67.3,28.2,-100.00,NNW,330,0.0,3.0,23,0.00,,,0.00,0.0,meteohub,2013-01-20 04:27:00,
2013-01-19 23:37:00,66.9,27.9,-100.00,NNW,331,3.0,3.0,23,0.00,,,0.00,0.0,meteohub,2013-01-20 04:37:00,
2013-01-19 23:42:00,66.9,27.9,-100.00,NNW,330,0.0,3.0,23,0.00,,,0.00,0.0,meteohub,2013-01-20 04:42:00,
2013-01-19 23:52:00,66.7,27.7,-100.00,NNW,331,0.0,3.0,23,0.00,,,0.00,0.0,meteohub,2013-01-20 04:52:00,